Location: Meinert
(37.9441°N, 122.0275°W)
Time: 19:53:18
(UTC+00:00)

ASTRO E2 - Pass Details

Date: 18 April 2024
Orbit: 431 x 435 km, 31.4° (Epoch: 22 May)

Event Time Altitude Azimuth Distance (km) Brightness Sun altitude
Exits shadow 13:02:36 - 248° (WSW) 1,753 4.7 -5.6°
Reaches altitude 10° 13:03:14 10° 243° (WSW) 1,526 4.4 -5.5°
Maximum altitude 13:06:12 26° 185° (S) 881 3.7 -4.9°
Drops below altitude 10° 13:09:12 10° 126° (SE) 1,535 5.7 -4.3°
Sets 13:11:34 0° 113° (ESE) 2,407 7.0 -3.9°
